Time,TemperatureF,DewpointF,PressureIn,WindDirection,WindDirectionDegrees,WindSpeedMPH,WindSpeedGustMPH,Humidity,HourlyPrecipIn,Conditions,Clouds,dailyrainin,SolarRadiationWatts/m^2,SoftwareType,DateUTC
2013-06-16 00:00:00,77.5,69.7,29.63,SE,138,2.0,8.0,77,0.00,,SKC,0.02,0.00,VWS V14.01,2013-06-16 05:00:00,
2013-06-16 00:01:00,77.5,69.7,29.63,SE,138,4.0,8.0,77,0.00,,---,0.02,0.00,VWS V14.00,2013-06-16 05:01:00,
2013-06-16 00:06:00,77.5,69.7,29.63,SE,138,2.0,7.0,77,0.00,,---,0.00,0.00,VWS V14.00,2013-06-16 05:06:00,
2013-06-16 00:10:00,77.5,69.7,29.63,SE,138,0.0,7.0,77,0.00,,SKC,0.00,0.00,VWS V14.01,2013-06-16 05:10:00,
2013-06-16 00:11:00,77.5,69.7,29.63,SE,138,0.0,7.0,77,0.00,,---,0.00,0.00,VWS V14.00,2013-06-16 05:11:00,
2013-06-16 00:16:00,77.5,69.7,29.63,SE,138,1.0,7.0,77,0.00,,---,0.00,0.00,VWS V14.00,2013-06-16 05:16:00,
2013-06-16 00:20:00,77.5,69.7,29.63,SE,138,4.0,7.0,77,0.00,,SKC,0.00,0.00,VWS V14.01,2013-06-16 05:20:00,
2013-06-16 00:21:00,77.5,69.7,29.63,SE,138,2.0,7.0,77,0.00,,---,0.00,0.00,VWS V14.00,2013-06-16 05:21:00,
2013-06-16 00:26:00,77.5,69.7,29.63,SE,138,2.0,5.0,77,0.00,,---,0.00,0.00,VWS V14.00,2013-06-16 05:26:00,
2013-06-16 00:30:00,77.6,69.8,29.63,SE,138,6.0,7.0,77,0.00,,SKC,0.00,0.00,VWS V14.01,2013-06-16 05:30:00,
2013-06-16 00:31:00,77.5,69.7,29.63,SE,138,1.0,7.0,77,0.00,,---,0.00,0.00,VWS V14.00,2013-06-16 05:31:00,
2013-06-16 00:36:00,77.6,69.8,29.63,SE,137,6.0,8.0,77,0.00,,---,0.00,0.00,VWS V14.00,2013-06-16 05:36:00,
2013-06-16 00:40:00,77.7,69.9,29.63,SE,137,5.0,8.0,77,0.00,,SKC,0.00,0.00,VWS V14.01,2013-06-16 05:40:00,
2013-06-16 00:41:00,77.7,69.9,29.63,SE,137,5.0,8.0,77,0.00,,---,0.00,0.00,VWS V14.00,2013-06-16 05:41:00,
2013-06-16 00:46:00,77.8,70.0,29.63,SE,137,4.0,9.0,77,0.00,,---,0.00,0.00,VWS V14.00,2013-06-16 05:46:00,
2013-06-16 00:50:00,77.8,70.0,29.63,SE,137,5.0,9.0,77,0.00,,SKC,0.00,0.00,VWS V14.01,2013-06-16 05:50:00,
2013-06-16 00:51:00,77.8,70.0,29.63,SE,137,5.0,9.0,77,0.00,,---,0.00,0.00,VWS V14.00,2013-06-16 05:51:00,
2013-06-16 00:56:00,77.7,69.9,29.63,SE,137,6.0,8.0,77,0.00,,---,0.00,0.00,VWS V14.00,2013-06-16 05:56:00,
2013-06-16 01:00:00,77.6,69.8,29.63,SE,137,7.0,8.0,77,0.00,,SKC,0.00,0.00,VWS V14.01,2013-06-16 06:00:00,
2013-06-16 01:01:00,77.7,69.9,29.63,SE,137,4.0,8.0,77,0.00,,---,0.00,0.00,VWS V14.00,2013-06-16 06:01:00,
2013-06-16 01:06:00,77.6,70.2,29.63,SE,137,4.0,9.0,78,0.00,,---,0.00,0.00,VWS V14.00,2013-06-16 06:06:00,
2013-06-16 01:10:00,77.6,70.2,29.63,SE,137,6.0,9.0,78,0.00,,SKC,0.00,0.00,VWS V14.01,2013-06-16 06:10:00,
2013-06-16 01:11:00,77.6,70.2,29.63,SE,137,6.0,9.0,78,0.00,,---,0.00,0.00,VWS V14.00,2013-06-16 06:11:00,
2013-06-16 01:16:00,77.6,70.2,29.63,SE,136,8.0,10.0,78,0.00,,---,0.00,0.00,VWS V14.00,2013-06-16 06:16:00,
2013-06-16 01:20:00,77.6,70.2,29.63,SE,136,4.0,10.0,78,0.00,,SKC,0.00,0.00,VWS V14.01,2013-06-16 06:20:00,
2013-06-16 01:21:00,77.6,70.2,29.63,SE,136,2.0,10.0,78,0.00,,---,0.00,0.00,VWS V14.00,2013-06-16 06:21:00,
2013-06-16 01:26:00,77.6,70.2,29.63,SE,136,6.0,11.0,78,0.00,,---,0.00,0.00,VWS V14.00,2013-06-16 06:26:00,
2013-06-16 01:30:00,77.6,70.6,29.63,SE,136,4.0,11.0,79,0.00,,SKC,0.00,0.00,VWS V14.01,2013-06-16 06:30:00,
2013-06-16 01:31:00,77.6,70.2,29.63,SE,136,4.0,11.0,78,0.00,,---,0.00,0.00,VWS V14.00,2013-06-16 06:31:00,
2013-06-16 01:36:00,77.5,70.5,29.63,SE,136,2.0,8.0,79,0.00,,---,0.00,0.00,VWS V14.00,2013-06-16 06:36:00,
2013-06-16 01:40:00,77.4,70.4,29.63,SE,136,5.0,9.0,79,0.00,,SKC,0.00,0.00,VWS V14.01,2013-06-16 06:40:00,
2013-06-16 01:41:00,77.4,70.4,29.63,SE,136,5.0,9.0,79,0.00,,---,0.00,0.00,VWS V14.00,2013-06-16 06:41:00,
2013-06-16 01:46:00,77.2,70.2,29.63,SE,136,7.0,8.0,79,0.00,,---,0.00,0.00,VWS V14.00,2013-06-16 06:46:00,
2013-06-16 01:50:00,77.1,70.1,29.63,SE,136,7.0,13.0,79,0.00,,SKC,0.00,0.00,VWS V14.01,2013-06-16 06:50:00,
2013-06-16 01:51:00,77.0,70.0,29.63,SE,136,10.0,11.0,79,0.00,,---,0.00,0.00,VWS V14.00,2013-06-16 06:51:00,
2013-06-16 01:56:00,76.9,69.9,29.63,SE,136,4.0,9.0,79,0.00,,---,0.00,0.00,VWS V14.00,2013-06-16 06:56:00,
2013-06-16 02:00:00,76.7,69.7,29.63,SE,137,6.0,11.0,79,0.00,,SKC,0.00,0.00,VWS V14.01,2013-06-16 07:00:00,
2013-06-16 02:01:00,76.7,69.7,29.63,SE,137,6.0,9.0,79,0.00,,---,0.00,0.00,VWS V14.00,2013-06-16 07:01:00,
2013-06-16 02:06:00,76.6,69.6,29.63,SE,138,5.0,12.0,79,0.00,,---,0.00,0.00,VWS V14.00,2013-06-16 07:06:00,
2013-06-16 02:10:00,76.4,69.4,29.63,SE,138,1.0,12.0,79,0.00,,SKC,0.00,0.00,VWS V14.01,2013-06-16 07:10:00,
2013-06-16 02:11:00,76.4,69.4,29.63,SE,138,5.0,12.0,79,0.00,,---,0.00,0.00,VWS V14.00,2013-06-16 07:11:00,
2013-06-16 02:16:00,76.2,69.2,29.63,SE,138,4.0,10.0,79,0.00,,---,0.00,0.00,VWS V14.00,2013-06-16 07:16:00,
2013-06-16 02:20:00,76.1,69.1,29.63,SE,138,4.0,11.0,79,0.00,,SKC,0.00,0.00,VWS V14.01,2013-06-16 07:20:00,
2013-06-16 02:21:00,76.1,69.1,29.63,SE,138,2.0,11.0,79,0.00,,---,0.00,0.00,VWS V14.00,2013-06-16 07:21:00,
2013-06-16 02:26:00,76.1,69.5,29.64,SE,138,6.0,9.0,80,0.00,,---,0.00,0.00,VWS V14.00,2013-06-16 07:26:00,
2013-06-16 02:30:00,76.0,69.4,29.64,SE,138,1.0,9.0,80,0.00,,SKC,0.00,0.00,VWS V14.01,2013-06-16 07:30:00,
2013-06-16 02:31:00,76.0,69.4,29.64,SE,138,4.0,9.0,80,0.00,,---,0.00,0.00,VWS V14.00,2013-06-16 07:31:00,
2013-06-16 02:36:00,75.8,69.2,29.63,SE,138,8.0,11.0,80,0.00,,---,0.00,0.00,VWS V14.00,2013-06-16 07:36:00,
2013-06-16 02:40:00,75.7,69.5,29.63,SE,138,5.0,11.0,81,0.00,,SKC,0.00,0.00,VWS V14.01,2013-06-16 07:40:00,
2013-06-16 02:41:00,75.8,69.6,29.63,SE,138,6.0,11.0,81,0.00,,---,0.00,0.00,VWS V14.00,2013-06-16 07:41:00,
2013-06-16 02:46:00,75.7,69.5,29.63,SE,138,4.0,10.0,81,0.00,,---,0.00,0.00,VWS V14.00,2013-06-16 07:46:00,
2013-06-16 02:50:00,75.5,69.3,29.62,SE,138,7.0,10.0,81,0.00,,SKC,0.00,0.00,VWS V14.01,2013-06-16 07:50:00,
2013-06-16 02:51:00,75.6,69.4,29.62,SE,138,5.0,10.0,81,0.00,,---,0.00,0.00,VWS V14.00,2013-06-16 07:51:00,
2013-06-16 02:56:00,75.4,69.5,29.62,SE,138,4.0,9.0,82,0.00,,---,0.00,0.00,VWS V14.00,2013-06-16 07:56:00,
2013-06-16 03:00:00,75.3,69.4,29.63,SE,138,7.0,9.0,82,0.00,,SKC,0.00,0.00,VWS V14.01,2013-06-16 08:00:00,
2013-06-16 03:01:00,75.3,69.4,29.63,SE,138,7.0,9.0,82,0.00,,---,0.00,0.00,VWS V14.00,2013-06-16 08:01:00,
2013-06-16 03:06:00,75.2,69.3,29.63,SE,138,7.0,11.0,82,0.00,,---,0.00,0.00,VWS V14.00,2013-06-16 08:06:00,
2013-06-16 03:10:00,75.1,69.2,29.62,SE,139,10.0,12.0,82,0.00,,SKC,0.00,0.00,VWS V14.01,2013-06-16 08:10:00,
2013-06-16 03:11:00,75.1,69.2,29.62,SE,139,5.0,12.0,82,0.00,,---,0.00,0.00,VWS V14.00,2013-06-16 08:11:00,
2013-06-16 03:16:00,75.0,69.5,29.62,SE,140,6.0,13.0,83,0.00,,---,0.00,0.00,VWS V14.00,2013-06-16 08:16:00,
2013-06-16 03:20:00,74.9,69.4,29.62,SE,139,7.0,13.0,83,0.00,,SKC,0.00,0.00,VWS V14.01,2013-06-16 08:20:00,
2013-06-16 03:21:00,74.9,69.4,29.62,SE,139,5.0,13.0,83,0.00,,---,0.00,0.00,VWS V14.00,2013-06-16 08:21:00,
2013-06-16 03:26:00,74.8,69.3,29.62,SE,139,5.0,15.0,83,0.00,,---,0.00,0.00,VWS V14.00,2013-06-16 08:26:00,
2013-06-16 03:30:00,74.8,69.3,29.62,SE,139,7.0,15.0,83,0.00,,SKC,0.00,0.00,VWS V14.01,2013-06-16 08:30:00,
2013-06-16 03:31:00,74.8,69.3,29.62,SE,139,2.0,15.0,83,0.00,,---,0.00,0.00,VWS V14.00,2013-06-16 08:31:00,
2013-06-16 03:36:00,74.8,69.3,29.62,SE,139,5.0,7.0,83,0.00,,---,0.00,0.00,VWS V14.00,2013-06-16 08:36:00,
2013-06-16 03:40:00,74.7,69.2,29.62,SE,139,7.0,11.0,83,0.00,,SKC,0.00,0.00,VWS V14.01,2013-06-16 08:40:00,
2013-06-16 03:41:00,74.7,69.2,29.62,SE,139,5.0,11.0,83,0.00,,---,0.00,0.00,VWS V14.00,2013-06-16 08:41:00,
2013-06-16 03:46:00,74.7,69.2,29.62,SE,140,7.0,10.0,83,0.00,,---,0.00,0.00,VWS V14.00,2013-06-16 08:46:00,
2013-06-16 03:50:00,74.7,69.2,29.62,SE,139,2.0,10.0,83,0.00,,SKC,0.00,0.00,VWS V14.01,2013-06-16 08:50:00,
2013-06-16 03:51:00,74.7,69.2,29.62,SE,139,4.0,10.0,83,0.00,,---,0.00,0.00,VWS V14.00,2013-06-16 08:51:00,
2013-06-16 03:56:00,74.6,69.1,29.62,SE,139,1.0,9.0,83,0.00,,---,0.00,0.00,VWS V14.00,2013-06-16 08:56:00,
2013-06-16 04:00:00,74.6,69.1,29.62,SE,139,6.0,9.0,83,0.00,,SKC,0.00,0.00,VWS V14.01,2013-06-16 09:00:00,
2013-06-16 04:01:00,74.6,69.1,29.62,SE,139,6.0,9.0,83,0.00,,---,0.00,0.00,VWS V14.00,2013-06-16 09:01:00,
2013-06-16 04:06:00,74.5,69.0,29.62,SE,139,5.0,9.0,83,0.00,,---,0.00,0.00,VWS V14.00,2013-06-16 09:06:00,
2013-06-16 04:10:00,74.4,68.9,29.62,SE,139,8.0,10.0,83,0.00,,SKC,0.00,0.00,VWS V14.01,2013-06-16 09:10:00,
2013-06-16 04:11:00,74.4,68.9,29.62,SE,139,4.0,9.0,83,0.00,,---,0.00,0.00,VWS V14.00,2013-06-16 09:11:00,
2013-06-16 04:16:00,74.4,68.9,29.61,SE,139,7.0,8.0,83,0.00,,---,0.00,0.00,VWS V14.00,2013-06-16 09:16:00,
2013-06-16 04:20:00,74.3,69.2,29.62,SE,139,1.0,10.0,84,0.00,,SKC,0.00,0.00,VWS V14.01,2013-06-16 09:20:00,
2013-06-16 04:21:00,74.3,69.2,29.62,SE,139,2.0,10.0,84,0.00,,---,0.00,0.00,VWS V14.00,2013-06-16 09:21:00,
2013-06-16 04:26:00,74.3,69.2,29.62,SE,139,5.0,8.0,84,0.00,,---,0.00,0.00,VWS V14.00,2013-06-16 09:26:00,
2013-06-16 04:30:00,74.2,69.1,29.62,SE,139,2.0,10.0,84,0.00,,SKC,0.00,0.00,VWS V14.01,2013-06-16 09:30:00,
2013-06-16 04:31:00,74.2,69.1,29.62,SE,139,7.0,10.0,84,0.00,,---,0.00,0.00,VWS V14.00,2013-06-16 09:31:00,
2013-06-16 04:36:00,74.1,69.3,29.62,SE,139,6.0,11.0,85,0.00,,---,0.00,0.00,VWS V14.00,2013-06-16 09:36:00,
2013-06-16 04:40:00,74.1,69.3,29.62,SE,139,6.0,11.0,85,0.00,,SKC,0.00,0.00,VWS V14.01,2013-06-16 09:40:00,
2013-06-16 04:41:00,74.1,69.3,29.62,SE,139,5.0,11.0,85,0.00,,---,0.00,0.00,VWS V14.00,2013-06-16 09:41:00,
2013-06-16 04:46:00,74.0,69.2,29.62,SE,139,0.0,7.0,85,0.00,,---,0.00,0.00,VWS V14.00,2013-06-16 09:46:00,
2013-06-16 04:50:00,74.0,69.2,29.62,SE,139,5.0,10.0,85,0.00,,SKC,0.00,0.00,VWS V14.01,2013-06-16 09:50:00,
2013-06-16 04:51:00,74.0,69.2,29.62,SE,139,10.0,10.0,85,0.00,,---,0.00,0.00,VWS V14.00,2013-06-16 09:51:00,
2013-06-16 04:56:00,74.0,69.2,29.62,SE,139,2.0,9.0,85,0.00,,---,0.00,0.00,VWS V14.00,2013-06-16 09:56:00,
2013-06-16 05:00:00,74.0,69.6,29.62,SE,139,7.0,9.0,86,0.00,,SKC,0.00,0.00,VWS V14.01,2013-06-16 10:00:00,
2013-06-16 05:01:00,74.0,69.2,29.62,SE,139,5.0,9.0,85,0.00,,---,0.00,0.00,VWS V14.00,2013-06-16 10:01:00,
2013-06-16 05:06:00,73.9,69.4,29.63,SE,139,4.0,9.0,86,0.00,,---,0.00,0.00,VWS V14.00,2013-06-16 10:06:00,
2013-06-16 05:10:00,73.9,69.4,29.63,SE,139,4.0,9.0,86,0.00,,SKC,0.00,0.00,VWS V14.01,2013-06-16 10:10:00,
2013-06-16 05:11:00,73.9,69.4,29.63,SE,139,4.0,9.0,86,0.00,,---,0.00,0.00,VWS V14.00,2013-06-16 10:11:00,
2013-06-16 05:16:00,74.0,69.6,29.63,SE,139,0.0,6.0,86,0.00,,---,0.00,0.00,VWS V14.00,2013-06-16 10:16:00,
2013-06-16 05:20:00,74.0,69.6,29.63,SE,139,0.0,6.0,86,0.00,,SKC,0.00,0.00,VWS V14.01,2013-06-16 10:20:00,
2013-06-16 05:21:00,74.0,69.6,29.63,SE,139,4.0,6.0,86,0.00,,---,0.00,0.00,VWS V14.00,2013-06-16 10:21:00,
2013-06-16 05:25:00,74.0,69.6,29.63,SE,139,4.0,5.0,86,0.00,,---,0.00,0.00,VWS V14.00,2013-06-16 10:25:00,
2013-06-16 05:30:00,74.1,69.7,29.63,SE,139,5.0,8.0,86,0.00,,---,0.00,0.00,VWS V14.00,2013-06-16 10:30:00,
2013-06-16 05:35:00,74.1,70.0,29.63,SE,139,6.0,8.0,87,0.00,,---,0.00,0.00,VWS V14.00,2013-06-16 10:35:00,
2013-06-16 05:40:00,74.1,70.0,29.64,SE,139,4.0,8.0,87,0.00,,---,0.00,0.00,VWS V14.00,2013-06-16 10:40:00,
2013-06-16 05:45:00,74.2,70.1,29.64,SE,139,0.0,4.0,87,0.00,,---,0.00,0.00,VWS V14.00,2013-06-16 10:45:00,
2013-06-16 05:50:00,74.2,70.1,29.65,SE,139,5.0,5.0,87,0.00,,---,0.00,0.00,VWS V14.00,2013-06-16 10:50:00,
2013-06-16 05:55:00,74.3,70.2,29.65,SE,139,0.0,5.0,87,0.00,,---,0.00,0.00,VWS V14.00,2013-06-16 10:55:00,
2013-06-16 06:00:00,74.4,69.9,29.65,SE,139,1.0,5.0,86,0.00,,---,0.00,0.00,VWS V14.00,2013-06-16 11:00:00,
2013-06-16 06:05:00,74.4,69.9,29.65,SE,139,4.0,9.0,86,0.00,,---,0.00,0.00,VWS V14.00,2013-06-16 11:05:00,
2013-06-16 06:10:00,74.5,70.0,29.65,SE,139,1.0,9.0,86,0.00,,---,0.00,0.00,VWS V14.00,2013-06-16 11:10:00,
2013-06-16 06:15:00,74.6,70.1,29.65,SE,138,1.0,8.0,86,0.00,,---,0.00,0.00,VWS V14.00,2013-06-16 11:15:00,
2013-06-16 06:20:00,74.7,70.2,29.65,SE,138,0.0,8.0,86,0.00,,---,0.00,0.00,VWS V14.00,2013-06-16 11:20:00,
2013-06-16 06:25:00,74.8,70.3,29.66,SE,138,4.0,6.0,86,0.00,,---,0.00,0.00,VWS V14.00,2013-06-16 11:25:00,
2013-06-16 06:30:00,74.9,70.4,29.66,SE,138,9.0,9.0,86,0.00,,---,0.00,0.00,VWS V14.00,2013-06-16 11:30:00,
2013-06-16 06:35:00,74.9,70.1,29.66,SE,138,6.0,9.0,85,0.00,,---,0.00,0.00,VWS V14.00,2013-06-16 11:35:00,
2013-06-16 06:40:00,75.0,70.2,29.66,SE,138,5.0,12.0,85,0.00,,---,0.00,0.00,VWS V14.00,2013-06-16 11:40:00,
2013-06-16 06:45:00,75.0,70.2,29.66,SE,138,4.0,10.0,85,0.00,,---,0.00,7.00,VWS V14.00,2013-06-16 11:45:00,
2013-06-16 06:50:00,75.0,70.2,29.66,SE,138,0.0,10.0,85,0.00,,---,0.00,11.00,VWS V14.00,2013-06-16 11:50:00,
2013-06-16 06:55:00,75.1,70.3,29.66,SE,138,2.0,7.0,85,0.00,,---,0.00,14.00,VWS V14.00,2013-06-16 11:55:00,
2013-06-16 07:00:00,75.0,70.2,29.66,SE,138,5.0,8.0,85,0.00,,---,0.00,19.00,VWS V14.00,2013-06-16 12:00:00,
2013-06-16 07:05:00,75.0,69.8,29.67,SE,138,1.0,7.0,84,0.00,,---,0.00,25.00,VWS V14.00,2013-06-16 12:05:00,
2013-06-16 07:10:00,74.9,69.7,29.67,SE,138,4.0,7.0,84,0.00,,---,0.00,33.00,VWS V14.00,2013-06-16 12:10:00,
2013-06-16 07:15:00,74.9,69.7,29.67,SE,138,1.0,6.0,84,0.00,,---,0.00,30.00,VWS V14.00,2013-06-16 12:15:00,
2013-06-16 07:20:00,74.9,69.7,29.67,SE,138,0.0,6.0,84,0.00,,---,0.00,26.00,VWS V14.00,2013-06-16 12:20:00,
2013-06-16 07:25:00,74.9,69.7,29.67,SE,138,4.0,8.0,84,0.00,,---,0.00,26.00,VWS V14.00,2013-06-16 12:25:00,
2013-06-16 07:30:00,74.9,69.7,29.67,SE,138,1.0,10.0,84,0.00,,---,0.00,32.00,VWS V14.00,2013-06-16 12:30:00,
2013-06-16 07:35:00,75.0,69.8,29.67,SE,138,4.0,5.0,84,0.00,,---,0.00,37.00,VWS V14.00,2013-06-16 12:35:00,
2013-06-16 07:40:00,75.0,69.8,29.67,SE,138,0.0,5.0,84,0.00,,---,0.00,49.00,VWS V14.00,2013-06-16 12:40:00,
2013-06-16 07:45:00,75.1,69.9,29.68,SE,138,5.0,5.0,84,0.00,,---,0.00,58.00,VWS V14.00,2013-06-16 12:45:00,
2013-06-16 07:50:00,75.1,69.9,29.68,SE,138,2.0,8.0,84,0.00,,---,0.00,72.00,VWS V14.00,2013-06-16 12:50:00,
2013-06-16 07:55:00,75.2,69.7,29.68,SE,138,4.0,5.0,83,0.00,,---,0.00,81.00,VWS V14.00,2013-06-16 12:55:00,
2013-06-16 08:00:00,75.2,69.7,29.68,SE,138,0.0,6.0,83,0.00,,---,0.00,91.00,VWS V14.00,2013-06-16 13:00:00,
2013-06-16 08:05:00,75.3,69.8,29.68,SE,138,0.0,2.0,83,0.00,,---,0.00,100.00,VWS V14.00,2013-06-16 13:05:00,
2013-06-16 08:10:00,75.4,69.9,29.69,SE,138,2.0,5.0,83,0.00,,---,0.00,100.00,VWS V14.00,2013-06-16 13:10:00,
2013-06-16 08:15:00,75.5,70.0,29.68,SE,138,0.0,7.0,83,0.00,,---,0.00,114.00,VWS V14.00,2013-06-16 13:15:00,
2013-06-16 08:20:00,75.7,69.8,29.68,SE,138,5.0,7.0,82,0.00,,---,0.00,113.00,VWS V14.00,2013-06-16 13:20:00,
2013-06-16 08:25:00,75.8,69.6,29.68,SE,138,0.0,7.0,81,0.00,,---,0.00,98.00,VWS V14.00,2013-06-16 13:25:00,
2013-06-16 08:30:00,76.0,69.8,29.68,SE,138,2.0,7.0,81,0.00,,---,0.00,91.00,VWS V14.00,2013-06-16 13:30:00,
2013-06-16 08:35:00,76.1,69.8,29.68,SE,138,0.0,6.0,81,0.00,,---,0.00,95.00,VWS V14.00,2013-06-16 13:35:00,
2013-06-16 08:40:00,76.2,69.9,29.69,SE,138,1.0,6.0,81,0.00,,---,0.00,104.00,VWS V14.00,2013-06-16 13:40:00,
2013-06-16 08:45:00,76.3,69.7,29.69,SE,138,0.0,5.0,80,0.00,,---,0.00,113.00,VWS V14.00,2013-06-16 13:45:00,
2013-06-16 08:50:00,76.4,69.8,29.69,SE,138,4.0,5.0,80,0.00,,---,0.00,123.00,VWS V14.00,2013-06-16 13:50:00,
2013-06-16 08:55:00,76.6,70.0,29.69,SE,138,0.0,5.0,80,0.00,,---,0.00,123.00,VWS V14.00,2013-06-16 13:55:00,
2013-06-16 09:00:00,76.7,69.7,29.69,SE,138,7.0,7.0,79,0.00,,---,0.00,132.00,VWS V14.00,2013-06-16 14:00:00,
2013-06-16 09:05:00,76.8,69.1,29.70,SE,138,4.0,7.0,77,0.00,,---,0.00,149.00,VWS V14.00,2013-06-16 14:05:00,
2013-06-16 09:10:00,76.9,69.2,29.70,SE,138,5.0,8.0,77,0.00,,---,0.00,163.00,VWS V14.00,2013-06-16 14:10:00,
2013-06-16 09:15:00,77.0,68.9,29.70,SE,138,4.0,7.0,76,0.00,,---,0.00,171.00,VWS V14.00,2013-06-16 14:15:00,
2013-06-16 09:20:00,77.1,69.0,29.70,SE,138,2.0,7.0,76,0.00,,---,0.00,185.00,VWS V14.00,2013-06-16 14:20:00,
2013-06-16 09:25:00,77.3,69.2,29.70,SE,138,2.0,7.0,76,0.00,,---,0.00,193.00,VWS V14.00,2013-06-16 14:25:00,
2013-06-16 09:30:00,77.5,68.6,29.70,SE,138,5.0,9.0,74,0.00,,---,0.00,197.00,VWS V14.00,2013-06-16 14:30:00,
2013-06-16 09:35:00,77.6,68.7,29.70,SE,138,7.0,9.0,74,0.00,,---,0.00,213.00,VWS V14.00,2013-06-16 14:35:00,
2013-06-16 09:40:00,77.6,68.7,29.70,SE,138,5.0,9.0,74,0.00,,---,0.00,211.00,VWS V14.00,2013-06-16 14:40:00,
2013-06-16 09:45:00,77.7,68.8,29.70,SE,138,1.0,9.0,74,0.00,,---,0.00,223.00,VWS V14.00,2013-06-16 14:45:00,
2013-06-16 09:50:00,77.8,68.9,29.70,SE,138,5.0,9.0,74,0.00,,---,0.00,255.00,VWS V14.00,2013-06-16 14:50:00,
2013-06-16 09:55:00,78.0,69.1,29.70,SE,138,6.0,9.0,74,0.00,,---,0.00,258.00,VWS V14.00,2013-06-16 14:55:00,
2013-06-16 10:00:00,78.2,68.8,29.70,SE,138,6.0,11.0,73,0.00,,---,0.00,278.00,VWS V14.00,2013-06-16 15:00:00,
2013-06-16 10:05:00,78.4,68.6,29.70,SE,138,2.0,9.0,72,0.00,,---,0.00,304.00,VWS V14.00,2013-06-16 15:05:00,
2013-06-16 10:10:00,78.6,68.8,29.70,SE,138,5.0,9.0,72,0.00,,---,0.00,322.00,VWS V14.00,2013-06-16 15:10:00,
2013-06-16 10:15:00,79.0,68.8,29.70,SE,138,1.0,5.0,71,0.00,,---,0.00,360.00,VWS V14.00,2013-06-16 15:15:00,
2013-06-16 10:20:00,79.4,68.8,29.70,SE,138,2.0,9.0,70,0.00,,---,0.00,364.00,VWS V14.00,2013-06-16 15:20:00,
2013-06-16 10:25:00,79.7,68.6,29.70,SE,138,6.0,8.0,69,0.00,,---,0.00,355.00,VWS V14.00,2013-06-16 15:25:00,
2013-06-16 10:30:00,80.0,68.5,29.70,SE,138,1.0,8.0,68,0.00,,---,0.00,359.00,VWS V14.00,2013-06-16 15:30:00,
2013-06-16 10:35:00,80.3,68.8,29.70,SE,138,5.0,8.0,68,0.00,,---,0.00,417.00,VWS V14.00,2013-06-16 15:35:00,
2013-06-16 10:40:00,80.5,68.5,29.70,SE,138,4.0,10.0,67,0.00,,---,0.00,415.00,VWS V14.00,2013-06-16 15:40:00,
2013-06-16 10:45:00,80.6,68.2,29.70,SE,138,2.0,12.0,66,0.00,,---,0.00,441.00,VWS V14.00,2013-06-16 15:45:00,
2013-06-16 10:50:00,80.9,68.0,29.70,SE,139,6.0,12.0,65,0.00,,---,0.00,469.00,VWS V14.00,2013-06-16 15:50:00,
2013-06-16 10:55:00,82.0,68.2,29.70,SE,141,5.0,10.0,63,0.00,,---,0.00,684.00,VWS V14.00,2013-06-16 15:55:00,
2013-06-16 11:00:00,82.7,68.4,29.70,SE,141,6.0,10.0,62,0.00,,---,0.00,577.00,VWS V14.00,2013-06-16 16:00:00,
2013-06-16 11:05:00,83.6,67.8,29.70,SE,141,6.0,7.0,59,0.00,,---,0.00,766.00,VWS V14.00,2013-06-16 16:05:00,
2013-06-16 11:10:00,84.2,67.3,29.70,SE,141,9.0,11.0,57,0.00,,---,0.00,497.00,VWS V14.00,2013-06-16 16:10:00,
2013-06-16 11:15:00,84.0,66.6,29.70,SE,142,4.0,11.0,56,0.00,,---,0.00,529.00,VWS V14.00,2013-06-16 16:15:00,
2013-06-16 11:20:00,84.0,68.1,29.71,SE,142,0.0,11.0,59,0.00,,---,0.00,568.00,VWS V14.00,2013-06-16 16:20:00,
2013-06-16 11:25:00,84.0,67.1,29.71,SE,141,5.0,11.0,57,0.00,,---,0.00,550.00,VWS V14.00,2013-06-16 16:25:00,
2013-06-16 11:30:00,84.0,67.7,29.71,SE,143,6.0,11.0,58,0.00,,---,0.00,550.00,VWS V14.00,2013-06-16 16:30:00,
2013-06-16 11:35:00,84.0,67.7,29.71,SE,143,4.0,8.0,58,0.00,,---,0.00,603.00,VWS V14.00,2013-06-16 16:35:00,
2013-06-16 11:40:00,84.4,68.0,29.71,SE,144,8.0,12.0,58,0.00,,---,0.00,622.00,VWS V14.00,2013-06-16 16:40:00,
2013-06-16 11:45:00,84.6,67.7,29.71,SSE,148,5.0,8.0,57,0.00,,---,0.00,584.00,VWS V14.00,2013-06-16 16:45:00,
2013-06-16 11:50:00,84.6,67.7,29.70,SSE,147,6.0,12.0,57,0.00,,---,0.00,612.00,VWS V14.00,2013-06-16 16:50:00,
2013-06-16 11:55:00,85.1,68.7,29.70,SSE,147,5.0,7.0,58,0.00,,---,0.00,1202.00,VWS V14.00,2013-06-16 16:55:00,
2013-06-16 12:00:00,86.2,67.6,29.70,SSE,148,7.0,10.0,54,0.00,,---,0.00,721.00,VWS V14.00,2013-06-16 17:00:00,
2013-06-16 12:05:00,87.1,67.9,29.70,SSE,148,4.0,7.0,53,0.00,,---,0.00,1111.00,VWS V14.00,2013-06-16 17:05:00,
2013-06-16 12:10:00,87.8,68.0,29.70,SSE,148,12.0,12.0,52,0.00,,---,0.00,1071.00,VWS V14.00,2013-06-16 17:10:00,
2013-06-16 12:15:00,88.3,67.9,29.69,SSE,148,4.0,9.0,51,0.00,,---,0.00,1118.00,VWS V14.00,2013-06-16 17:15:00,
2013-06-16 12:20:00,88.9,67.3,29.70,SSE,148,4.0,9.0,49,0.00,,---,0.00,1151.00,VWS V14.00,2013-06-16 17:20:00,
2013-06-16 12:25:00,89.2,68.2,29.69,SE,146,6.0,9.0,50,0.00,,---,0.00,1072.00,VWS V14.00,2013-06-16 17:25:00,
2013-06-16 12:30:00,89.5,67.8,29.69,SSE,147,4.0,11.0,49,0.00,,---,0.00,522.00,VWS V14.00,2013-06-16 17:30:00,
2013-06-16 12:35:00,88.9,67.3,29.70,SSE,147,6.0,11.0,49,0.00,,---,0.00,494.00,VWS V14.00,2013-06-16 17:35:00,
2013-06-16 12:40:00,88.3,67.3,29.70,SE,135,6.0,13.0,50,0.00,,---,0.00,1067.00,VWS V14.00,2013-06-16 17:40:00,
2013-06-16 12:45:00,88.3,67.9,29.69,SE,135,5.0,12.0,51,0.00,,---,0.00,1106.00,VWS V14.00,2013-06-16 17:45:00,
2013-06-16 12:50:00,88.6,68.2,29.69,SE,136,2.0,13.0,51,0.00,,---,0.00,782.00,VWS V14.00,2013-06-16 17:50:00,
2013-06-16 12:55:00,89.2,68.2,29.69,SE,138,5.0,11.0,50,0.00,,---,0.00,800.00,VWS V14.00,2013-06-16 17:55:00,
2013-06-16 13:00:00,89.2,67.6,29.69,SE,138,2.0,12.0,49,0.00,,---,0.00,545.00,VWS V14.00,2013-06-16 18:00:00,
2013-06-16 13:05:00,89.1,67.5,29.69,SE,146,11.0,12.0,49,0.00,,---,0.00,889.00,VWS V14.00,2013-06-16 18:05:00,
2013-06-16 13:10:00,89.6,67.3,29.68,SE,146,11.0,14.0,48,0.00,,---,0.00,1148.00,VWS V14.00,2013-06-16 18:10:00,
2013-06-16 13:15:00,90.2,67.9,29.68,SE,146,1.0,12.0,48,0.00,,---,0.00,1202.00,VWS V14.00,2013-06-16 18:15:00,
2013-06-16 13:20:00,90.8,67.8,29.68,SE,146,2.0,12.0,47,0.00,,---,0.00,965.00,VWS V14.00,2013-06-16 18:20:00,
2013-06-16 13:25:00,91.1,68.1,29.68,SSE,147,9.0,10.0,47,0.00,,---,0.00,1144.00,VWS V14.00,2013-06-16 18:25:00,
2013-06-16 13:30:00,91.3,67.6,29.68,SSE,148,4.0,10.0,46,0.00,,---,0.00,494.00,VWS V14.00,2013-06-16 18:30:00,
2013-06-16 13:35:00,90.7,67.1,29.68,SE,146,5.0,11.0,46,0.00,,---,0.00,473.00,VWS V14.00,2013-06-16 18:35:00,
2013-06-16 13:40:00,90.4,66.8,29.67,SE,146,2.0,11.0,46,0.00,,---,0.00,471.00,VWS V14.00,2013-06-16 18:40:00,
2013-06-16 13:45:00,90.1,67.2,29.67,SE,146,8.0,9.0,47,0.00,,---,0.00,1123.00,VWS V14.00,2013-06-16 18:45:00,
2013-06-16 13:50:00,90.2,67.9,29.67,SE,146,4.0,11.0,48,0.00,,---,0.00,439.00,VWS V14.00,2013-06-16 18:50:00,
2013-06-16 13:55:00,90.1,67.8,29.67,SSE,150,0.0,9.0,48,0.00,,---,0.00,380.00,VWS V14.00,2013-06-16 18:55:00,
2013-06-16 14:00:00,90.2,67.9,29.66,SSE,151,8.0,12.0,48,0.00,,---,0.00,397.00,VWS V14.00,2013-06-16 19:00:00,
2013-06-16 14:05:00,90.2,67.3,29.66,SSE,151,10.0,12.0,47,0.00,,---,0.00,960.00,VWS V14.00,2013-06-16 19:05:00,
2013-06-16 14:10:00,90.1,66.6,29.66,SSE,151,5.0,12.0,46,0.00,,---,0.00,541.00,VWS V14.00,2013-06-16 19:10:00,
2013-06-16 14:15:00,90.2,67.3,29.66,SSE,149,6.0,10.0,47,0.00,,---,0.00,541.00,VWS V14.00,2013-06-16 19:15:00,
2013-06-16 14:20:00,90.2,67.3,29.66,SSE,149,7.0,10.0,47,0.00,,---,0.00,490.00,VWS V14.00,2013-06-16 19:20:00,
2013-06-16 14:25:00,91.0,67.4,29.66,SSE,149,6.0,8.0,46,0.00,,---,0.00,1123.00,VWS V14.00,2013-06-16 19:25:00,
2013-06-16 14:30:00,91.9,68.2,29.66,SSE,151,4.0,12.0,46,0.00,,---,0.00,1100.00,VWS V14.00,2013-06-16 19:30:00,
2013-06-16 14:35:00,92.3,68.5,29.65,SSE,150,5.0,7.0,46,0.00,,---,0.00,1056.00,VWS V14.00,2013-06-16 19:35:00,
2013-06-16 14:40:00,92.9,68.4,29.65,SE,144,4.0,11.0,45,0.00,,---,0.00,967.00,VWS V14.00,2013-06-16 19:40:00,
2013-06-16 14:45:00,92.5,68.1,29.65,SE,144,10.0,10.0,45,0.00,,---,0.00,882.00,VWS V14.00,2013-06-16 19:45:00,
2013-06-16 14:50:00,92.6,68.8,29.64,SE,146,9.0,11.0,46,0.00,,---,0.00,1005.00,VWS V14.00,2013-06-16 19:50:00,
2013-06-16 14:55:00,92.4,68.0,29.63,SE,145,10.0,12.0,45,0.00,,---,0.00,960.00,VWS V14.00,2013-06-16 19:55:00,
2013-06-16 15:00:00,92.2,67.8,29.63,SSE,148,7.0,14.0,45,0.00,,---,0.00,942.00,VWS V14.00,2013-06-16 20:00:00,
2013-06-16 15:05:00,92.2,67.2,29.63,SE,144,6.0,13.0,44,0.00,,---,0.00,937.00,VWS V14.00,2013-06-16 20:05:00,
2013-06-16 15:10:00,92.3,67.9,29.63,SSE,148,6.0,18.0,45,0.00,,---,0.00,928.00,VWS V14.00,2013-06-16 20:10:00,
2013-06-16 15:15:00,92.5,68.1,29.63,SSE,147,1.0,12.0,45,0.00,,---,0.00,916.00,VWS V14.00,2013-06-16 20:15:00,
2013-06-16 15:20:00,92.8,67.7,29.63,SE,145,1.0,14.0,44,0.00,,---,0.00,919.00,VWS V14.00,2013-06-16 20:20:00,
2013-06-16 15:25:00,92.9,67.8,29.62,SE,145,6.0,10.0,44,0.00,,---,0.00,933.00,VWS V14.00,2013-06-16 20:25:00,
2013-06-16 15:30:00,92.7,67.6,29.62,SE,146,5.0,10.0,44,0.00,,---,0.00,916.00,VWS V14.00,2013-06-16 20:30:00,
2013-06-16 15:35:00,92.9,67.8,29.62,SE,143,2.0,12.0,44,0.00,,---,0.00,909.00,VWS V14.00,2013-06-16 20:35:00,
2013-06-16 15:40:00,93.0,67.9,29.62,SE,143,5.0,13.0,44,0.00,,---,0.00,895.00,VWS V14.00,2013-06-16 20:40:00,
2013-06-16 15:45:00,93.2,67.4,29.62,SE,143,5.0,13.0,43,0.00,,---,0.00,902.00,VWS V14.00,2013-06-16 20:45:00,
2013-06-16 15:50:00,93.7,67.2,29.61,SE,146,8.0,13.0,42,0.00,,---,0.00,889.00,VWS V14.00,2013-06-16 20:50:00,
2013-06-16 15:55:00,93.9,67.3,29.61,SSE,147,6.0,14.0,42,0.00,,---,0.00,879.00,VWS V14.00,2013-06-16 20:55:00,
2013-06-16 16:00:00,94.0,66.7,29.61,SE,142,8.0,14.0,41,0.00,,---,0.00,898.00,VWS V14.00,2013-06-16 21:00:00,
2013-06-16 16:05:00,93.8,65.8,29.61,SE,144,9.0,18.0,40,0.00,,---,0.00,865.00,VWS V14.00,2013-06-16 21:05:00,
2013-06-16 16:10:00,93.8,66.6,29.61,SE,143,6.0,18.0,41,0.00,,---,0.00,888.00,VWS V14.00,2013-06-16 21:10:00,
2013-06-16 16:15:00,93.8,66.6,29.60,SE,144,1.0,13.0,41,0.00,,---,0.00,907.00,VWS V14.00,2013-06-16 21:15:00,
2013-06-16 16:20:00,93.8,65.8,29.60,SSE,164,9.0,15.0,40,0.00,,---,0.00,838.00,VWS V14.00,2013-06-16 21:20:00,
2013-06-16 16:25:00,94.3,67.7,29.59,SSE,165,4.0,9.0,42,0.00,,---,0.00,893.00,VWS V14.00,2013-06-16 21:25:00,
2013-06-16 16:30:00,94.5,67.2,29.60,SSE,158,12.0,12.0,41,0.00,,---,0.00,209.00,VWS V14.00,2013-06-16 21:30:00,
2013-06-16 16:35:00,93.7,66.5,29.59,SSE,157,4.0,12.0,41,0.00,,---,0.00,793.00,VWS V14.00,2013-06-16 21:35:00,
2013-06-16 16:40:00,93.5,67.7,29.59,SE,144,6.0,13.0,43,0.00,,---,0.00,823.00,VWS V14.00,2013-06-16 21:40:00,
2013-06-16 16:45:00,94.1,66.1,29.59,SSE,147,1.0,14.0,40,0.00,,---,0.00,788.00,VWS V14.00,2013-06-16 21:45:00,
2013-06-16 16:50:00,94.3,66.3,29.59,SSE,148,5.0,15.0,40,0.00,,---,0.00,751.00,VWS V14.00,2013-06-16 21:50:00,
2013-06-16 16:55:00,94.3,67.0,29.58,SSE,149,4.0,11.0,41,0.00,,---,0.00,722.00,VWS V14.00,2013-06-16 21:55:00,
2013-06-16 17:00:00,94.6,66.6,29.59,SSE,148,6.0,13.0,40,0.00,,---,0.00,712.00,VWS V14.00,2013-06-16 22:00:00,
2013-06-16 17:05:00,93.8,66.6,29.58,SE,145,15.0,17.0,41,0.00,,---,0.00,684.00,VWS V14.00,2013-06-16 22:05:00,
2013-06-16 17:10:00,93.6,66.4,29.58,SE,144,10.0,17.0,41,0.00,,---,0.00,666.00,VWS V14.00,2013-06-16 22:10:00,
2013-06-16 17:15:00,93.5,67.0,29.58,SE,141,7.0,12.0,42,0.00,,---,0.00,652.00,VWS V14.00,2013-06-16 22:15:00,
2013-06-16 17:20:00,93.4,66.2,29.58,SE,138,6.0,13.0,41,0.00,,---,0.00,647.00,VWS V14.00,2013-06-16 22:20:00,
2013-06-16 17:25:00,93.6,66.4,29.58,SE,140,9.0,12.0,41,0.00,,---,0.00,622.00,VWS V14.00,2013-06-16 22:25:00,
2013-06-16 17:30:00,93.5,66.3,29.58,SE,141,11.0,12.0,41,0.00,,---,0.00,603.00,VWS V14.00,2013-06-16 22:30:00,
2013-06-16 17:35:00,93.8,66.6,29.58,SE,141,5.0,9.0,41,0.00,,---,0.00,598.00,VWS V14.00,2013-06-16 22:35:00,
2013-06-16 17:40:00,93.9,66.6,29.58,SE,142,8.0,12.0,41,0.00,,---,0.00,111.00,VWS V14.00,2013-06-16 22:40:00,
2013-06-16 17:45:00,93.2,66.0,29.58,SE,142,5.0,11.0,41,0.00,,---,0.00,563.00,VWS V14.00,2013-06-16 22:45:00,
2013-06-16 17:50:00,93.1,65.9,29.58,SE,142,2.0,12.0,41,0.00,,---,0.00,552.00,VWS V14.00,2013-06-16 22:50:00,
2013-06-16 17:55:00,93.1,65.9,29.57,SE,142,6.0,7.0,41,0.00,,---,0.00,520.00,VWS V14.00,2013-06-16 22:55:00,
2013-06-16 18:00:00,93.0,65.8,29.57,SE,132,9.0,17.0,41,0.00,,---,0.00,499.00,VWS V14.00,2013-06-16 23:00:00,
2013-06-16 18:05:00,92.6,65.5,29.57,SE,132,5.0,11.0,41,0.00,,---,0.00,489.00,VWS V14.00,2013-06-16 23:05:00,
2013-06-16 18:10:00,92.6,66.2,29.57,SE,131,5.0,12.0,42,0.00,,---,0.00,476.00,VWS V14.00,2013-06-16 23:10:00,
2013-06-16 18:15:00,92.6,66.9,29.56,SE,131,8.0,8.0,43,0.00,,---,0.00,454.00,VWS V14.00,2013-06-16 23:15:00,
2013-06-16 18:20:00,92.7,66.3,29.56,SE,132,2.0,13.0,42,0.00,,---,0.00,432.00,VWS V14.00,2013-06-16 23:20:00,
2013-06-16 18:25:00,92.6,66.2,29.56,SE,132,2.0,8.0,42,0.00,,---,0.00,396.00,VWS V14.00,2013-06-16 23:25:00,
2013-06-16 18:30:00,92.8,67.0,29.56,SE,132,11.0,13.0,43,0.00,,---,0.00,338.00,VWS V14.00,2013-06-16 23:30:00,
2013-06-16 18:35:00,92.6,66.9,29.56,SE,132,6.0,12.0,43,0.00,,---,0.00,390.00,VWS V14.00,2013-06-16 23:35:00,
2013-06-16 18:40:00,92.5,66.8,29.56,SE,132,5.0,12.0,43,0.00,,---,0.00,362.00,VWS V14.00,2013-06-16 23:40:00,
2013-06-16 18:45:00,92.4,66.7,29.56,SE,132,2.0,11.0,43,0.00,,---,0.00,330.00,VWS V14.00,2013-06-16 23:45:00,
2013-06-16 18:50:00,92.1,66.4,29.55,SE,141,6.0,14.0,43,0.00,,---,0.00,322.00,VWS V14.00,2013-06-16 23:50:00,
2013-06-16 18:55:00,91.8,67.4,29.55,SE,141,9.0,13.0,45,0.00,,---,0.00,315.00,VWS V14.00,2013-06-16 23:55:00,
2013-06-16 19:00:00,91.6,67.3,29.56,SE,133,8.0,14.0,45,0.00,,---,0.00,290.00,VWS V14.00,2013-06-17 00:00:00,
2013-06-16 19:05:00,91.5,67.2,29.56,SE,134,5.0,15.0,45,0.00,,---,0.00,271.00,VWS V14.00,2013-06-17 00:05:00,
2013-06-16 19:10:00,91.4,67.7,29.56,SE,134,7.0,15.0,46,0.00,,---,0.00,253.00,VWS V14.00,2013-06-17 00:10:00,
2013-06-16 19:15:00,91.1,68.1,29.56,SE,132,5.0,15.0,47,0.00,,---,0.00,236.00,VWS V14.00,2013-06-17 00:15:00,
2013-06-16 19:20:00,90.9,67.9,29.56,SE,133,9.0,15.0,47,0.00,,---,0.00,221.00,VWS V14.00,2013-06-17 00:20:00,
2013-06-16 19:25:00,90.5,67.5,29.56,SE,135,7.0,13.0,47,0.00,,---,0.00,195.00,VWS V14.00,2013-06-17 00:25:00,
2013-06-16 19:30:00,90.2,67.3,29.56,SE,136,5.0,13.0,47,0.00,,---,0.00,176.00,VWS V14.00,2013-06-17 00:30:00,
2013-06-16 19:35:00,89.9,68.2,29.56,SE,135,10.0,11.0,49,0.00,,---,0.00,158.00,VWS V14.00,2013-06-17 00:35:00,
2013-06-16 19:40:00,89.7,68.0,29.55,SE,135,6.0,14.0,49,0.00,,---,0.00,141.00,VWS V14.00,2013-06-17 00:40:00,
2013-06-16 19:45:00,89.4,68.3,29.55,SE,135,8.0,10.0,50,0.00,,---,0.00,120.00,VWS V14.00,2013-06-17 00:45:00,
2013-06-16 19:50:00,89.2,68.7,29.55,SE,136,8.0,15.0,51,0.00,,---,0.00,93.00,VWS V14.00,2013-06-17 00:50:00,
2013-06-16 19:55:00,88.9,69.0,29.55,SE,136,8.0,12.0,52,0.00,,---,0.00,84.00,VWS V14.00,2013-06-17 00:55:00,
2013-06-16 20:00:00,88.6,68.7,29.56,SE,136,8.0,13.0,52,0.00,,---,0.00,70.00,VWS V14.00,2013-06-17 01:00:00,
2013-06-16 20:05:00,88.3,68.5,29.55,SE,136,2.0,11.0,52,0.00,,---,0.00,56.00,VWS V14.00,2013-06-17 01:05:00,
2013-06-16 20:10:00,88.1,68.3,29.56,SE,136,6.0,12.0,52,0.00,,---,0.00,44.00,VWS V14.00,2013-06-17 01:10:00,
2013-06-16 20:15:00,87.9,68.7,29.56,SE,136,9.0,10.0,53,0.00,,---,0.00,32.00,VWS V14.00,2013-06-17 01:15:00,
2013-06-16 20:20:00,87.7,68.5,29.56,SE,136,5.0,12.0,53,0.00,,---,0.00,25.00,VWS V14.00,2013-06-17 01:20:00,
2013-06-16 20:25:00,87.4,68.7,29.56,SE,136,5.0,14.0,54,0.00,,---,0.00,11.00,VWS V14.00,2013-06-17 01:25:00,
2013-06-16 20:30:00,87.2,69.1,29.56,SE,136,4.0,14.0,55,0.00,,---,0.00,5.00,VWS V14.00,2013-06-17 01:30:00,
2013-06-16 20:35:00,86.8,69.2,29.56,SE,134,4.0,12.0,56,0.00,,---,0.00,0.00,VWS V14.00,2013-06-17 01:35:00,
2013-06-16 20:40:00,86.5,69.0,29.56,SE,134,8.0,12.0,56,0.00,,---,0.00,0.00,VWS V14.00,2013-06-17 01:40:00,
2013-06-16 20:45:00,86.3,69.3,29.56,SE,134,5.0,7.0,57,0.00,,---,0.00,0.00,VWS V14.00,2013-06-17 01:45:00,
2013-06-16 20:50:00,86.0,69.0,29.56,SE,134,6.0,12.0,57,0.00,,---,0.00,0.00,VWS V14.00,2013-06-17 01:50:00,
2013-06-16 20:55:00,85.8,69.3,29.56,SE,134,4.0,8.0,58,0.00,,---,0.00,0.00,VWS V14.00,2013-06-17 01:55:00,
2013-06-16 21:00:00,85.6,69.1,29.56,SE,134,4.0,8.0,58,0.00,,---,0.00,0.00,VWS V14.00,2013-06-17 02:00:00,
2013-06-16 21:04:00,85.4,69.0,29.55,SE,134,4.0,6.0,58,0.00,,---,0.00,0.00,VWS V14.00,2013-06-17 02:04:00,
2013-06-16 21:09:00,85.2,69.3,29.56,SE,134,0.0,8.0,59,0.00,,---,0.00,0.00,VWS V14.00,2013-06-17 02:09:00,
2013-06-16 21:10:00,85.1,69.2,29.56,SE,134,5.0,8.0,59,0.00,,SKC,0.00,0.00,VWS V14.01,2013-06-17 02:10:00,
2013-06-16 21:14:00,85.0,69.1,29.56,SE,134,2.0,6.0,59,0.00,,---,0.00,0.00,VWS V14.00,2013-06-17 02:14:00,
2013-06-16 21:19:00,84.8,69.4,29.57,SE,134,1.0,8.0,60,0.00,,---,0.00,0.00,VWS V14.00,2013-06-17 02:19:00,
2013-06-16 21:20:00,84.7,69.3,29.57,SE,134,4.0,8.0,60,0.00,,SKC,0.00,0.00,VWS V14.01,2013-06-17 02:20:00,
2013-06-16 21:24:00,84.6,69.2,29.56,SE,134,5.0,5.0,60,0.00,,---,0.00,0.00,VWS V14.00,2013-06-17 02:24:00,
2013-06-16 21:29:00,84.4,69.5,29.57,SE,134,6.0,6.0,61,0.00,,---,0.00,0.00,VWS V14.00,2013-06-17 02:29:00,
2013-06-16 21:30:00,84.3,69.4,29.57,SE,134,1.0,7.0,61,0.00,,SKC,0.00,0.00,VWS V14.01,2013-06-17 02:30:00,
2013-06-16 21:34:00,84.2,69.3,29.57,SE,134,4.0,7.0,61,0.00,,---,0.00,0.00,VWS V14.00,2013-06-17 02:34:00,
2013-06-16 21:39:00,84.0,69.1,29.57,SE,134,6.0,8.0,61,0.00,,---,0.00,0.00,VWS V14.00,2013-06-17 02:39:00,
2013-06-16 21:40:00,83.9,69.5,29.57,SE,134,4.0,8.0,62,0.00,,SKC,0.00,0.00,VWS V14.01,2013-06-17 02:40:00,
2013-06-16 21:44:00,83.8,69.4,29.57,SE,134,2.0,6.0,62,0.00,,---,0.00,0.00,VWS V14.00,2013-06-17 02:44:00,
2013-06-16 21:49:00,83.6,69.2,29.57,SE,134,4.0,6.0,62,0.00,,---,0.00,0.00,VWS V14.00,2013-06-17 02:49:00,
2013-06-16 21:50:00,83.6,69.2,29.57,SE,134,2.0,6.0,62,0.00,,SKC,0.00,0.00,VWS V14.01,2013-06-17 02:50:00,
2013-06-16 21:54:00,83.4,69.5,29.58,SE,134,2.0,6.0,63,0.00,,---,0.00,0.00,VWS V14.00,2013-06-17 02:54:00,
2013-06-16 21:59:00,83.3,69.4,29.58,SE,134,2.0,6.0,63,0.00,,---,0.00,0.00,VWS V14.00,2013-06-17 02:59:00,
2013-06-16 22:00:00,83.2,69.3,29.58,SE,134,4.0,6.0,63,0.00,,SKC,0.00,0.00,VWS V14.01,2013-06-17 03:00:00,
2013-06-16 22:04:00,83.1,69.2,29.58,SE,134,5.0,5.0,63,0.00,,---,0.00,0.00,VWS V14.00,2013-06-17 03:04:00,
2013-06-16 22:09:00,83.0,69.6,29.57,SE,134,6.0,6.0,64,0.00,,---,0.00,0.00,VWS V14.00,2013-06-17 03:09:00,
2013-06-16 22:10:00,82.9,69.5,29.57,SE,134,7.0,7.0,64,0.00,,SKC,0.00,0.00,VWS V14.01,2013-06-17 03:10:00,
2013-06-16 22:14:00,82.9,69.5,29.58,SE,134,4.0,7.0,64,0.00,,---,0.00,0.00,VWS V14.00,2013-06-17 03:14:00,
2013-06-16 22:19:00,82.8,69.4,29.58,SE,134,4.0,7.0,64,0.00,,---,0.00,0.00,VWS V14.00,2013-06-17 03:19:00,
2013-06-16 22:20:00,82.7,69.3,29.58,SE,134,4.0,7.0,64,0.00,,SKC,0.00,0.00,VWS V14.01,2013-06-17 03:20:00,
2013-06-16 22:24:00,82.7,69.3,29.58,SE,134,1.0,7.0,64,0.00,,---,0.00,0.00,VWS V14.00,2013-06-17 03:24:00,
2013-06-16 22:29:00,82.6,69.2,29.58,SE,134,2.0,7.0,64,0.00,,---,0.00,0.00,VWS V14.00,2013-06-17 03:29:00,
2013-06-16 22:30:00,82.5,69.6,29.58,SE,134,2.0,7.0,65,0.00,,SKC,0.00,0.00,VWS V14.01,2013-06-17 03:30:00,
2013-06-16 22:34:00,82.5,69.6,29.58,SE,134,2.0,6.0,65,0.00,,---,0.00,0.00,VWS V14.00,2013-06-17 03:34:00,
2013-06-16 22:39:00,82.3,69.4,29.58,SE,134,2.0,6.0,65,0.00,,---,0.00,0.00,VWS V14.00,2013-06-17 03:39:00,
2013-06-16 22:40:00,82.2,69.3,29.58,SE,134,5.0,6.0,65,0.00,,SKC,0.00,0.00,VWS V14.01,2013-06-17 03:40:00,
2013-06-16 22:44:00,82.1,69.2,29.58,SE,134,1.0,7.0,65,0.00,,---,0.00,0.00,VWS V14.00,2013-06-17 03:44:00,
2013-06-16 22:49:00,82.0,69.5,29.58,SE,134,2.0,7.0,66,0.00,,---,0.00,0.00,VWS V14.00,2013-06-17 03:49:00,
2013-06-16 22:50:00,82.0,69.5,29.58,SE,134,2.0,7.0,66,0.00,,SKC,0.00,0.00,VWS V14.01,2013-06-17 03:50:00,
2013-06-16 22:54:00,81.9,69.4,29.58,SE,134,5.0,5.0,66,0.00,,---,0.00,0.00,VWS V14.00,2013-06-17 03:54:00,
2013-06-16 22:59:00,81.7,69.2,29.58,SE,134,2.0,6.0,66,0.00,,---,0.00,0.00,VWS V14.00,2013-06-17 03:59:00,
2013-06-16 23:00:00,81.7,69.2,29.58,SE,134,1.0,6.0,66,0.00,,SKC,0.00,0.00,VWS V14.01,2013-06-17 04:00:00,
2013-06-16 23:01:00,81.7,69.2,29.58,SE,134,4.0,6.0,66,0.00,,---,0.00,0.00,VWS V14.00,2013-06-17 04:01:00,
2013-06-16 23:06:00,81.6,69.2,29.58,SE,134,0.0,5.0,66,0.00,,---,0.00,0.00,VWS V14.00,2013-06-17 04:06:00,
2013-06-16 23:10:00,81.5,69.1,29.58,SE,134,0.0,5.0,66,0.00,,SKC,0.00,0.00,VWS V14.01,2013-06-17 04:10:00,
2013-06-16 23:11:00,81.5,69.1,29.58,SE,134,0.0,5.0,66,0.00,,---,0.00,0.00,VWS V14.00,2013-06-17 04:11:00,
2013-06-16 23:16:00,81.4,69.4,29.58,SE,134,0.0,4.0,67,0.00,,---,0.00,0.00,VWS V14.00,2013-06-17 04:16:00,
2013-06-16 23:20:00,81.3,69.3,29.59,SE,134,0.0,5.0,67,0.00,,SKC,0.00,0.00,VWS V14.01,2013-06-17 04:20:00,
2013-06-16 23:21:00,81.3,69.3,29.59,SE,134,1.0,5.0,67,0.00,,---,0.00,0.00,VWS V14.00,2013-06-17 04:21:00,
2013-06-16 23:26:00,81.2,69.2,29.59,SE,134,4.0,4.0,67,0.00,,---,0.00,0.00,VWS V14.00,2013-06-17 04:26:00,
2013-06-16 23:30:00,81.2,69.2,29.59,SE,134,1.0,7.0,67,0.00,,SKC,0.00,0.00,VWS V14.01,2013-06-17 04:30:00,
2013-06-16 23:31:00,81.2,69.2,29.59,SE,134,2.0,7.0,67,0.00,,---,0.00,0.00,VWS V14.00,2013-06-17 04:31:00,
2013-06-16 23:36:00,81.2,69.2,29.58,SE,134,2.0,6.0,67,0.00,,---,0.00,0.00,VWS V14.00,2013-06-17 04:36:00,
2013-06-16 23:40:00,81.2,69.2,29.58,SE,134,8.0,9.0,67,0.00,,SKC,0.00,0.00,VWS V14.01,2013-06-17 04:40:00,
2013-06-16 23:41:00,81.2,69.2,29.58,SE,134,7.0,7.0,67,0.00,,---,0.00,0.00,VWS V14.00,2013-06-17 04:41:00,
2013-06-16 23:46:00,81.2,69.2,29.58,SE,134,8.0,9.0,67,0.00,,---,0.00,0.00,VWS V14.00,2013-06-17 04:46:00,
2013-06-16 23:50:00,81.1,69.1,29.58,SE,135,6.0,12.0,67,0.00,,SKC,0.00,0.00,VWS V14.01,2013-06-17 04:50:00,
2013-06-16 23:51:00,81.1,69.1,29.58,SE,135,6.0,12.0,67,0.00,,---,0.00,0.00,VWS V14.00,2013-06-17 04:51:00,
2013-06-16 23:56:00,81.0,69.4,29.57,SE,135,5.0,11.0,68,0.00,,---,0.00,0.00,VWS V14.00,2013-06-17 04:56:00,